Terminal Aerodrome Forecast
Issued by NWS Paducah, KY

Home | Current Version | Previous Version | Text Only | Print | Product List | Glossary On
Versions: 1 2 3 4 5 6 7 8 9 10 11 12 13 14 15
000
FTUS43 KPAH 170500
TAFEVV
TAF
KEVV 170520Z 1706/1806 16003KT P6SM SCT250
     FM171500 20011G17KT P6SM FEW040
     FM180000 17003KT P6SM SCT050=

USA.gov is the U.S. government's official web portal to all federal, state and local government web resources and services.